Flag for Ireland Weather past 2 weeks in Dublin, Ireland

Now
55 °F

Scattered clouds.


Feels Like: 54 °F
Forecast: 48 / 54 °F
Wind: 7 mph from Northeast

Location: Dublin Airport


UV Index: 0 (Low)

Visibility: 6 mi


Pressure: 29.74 "Hg

Humidity: 77%

Dew point: 48 °F

Location of DublinLocation

Historic Weather in Dublin

°F

Dublin temperature yesterday

Maximum temperature yesterday: 54 °F (at 12:30 PM)
Minimum temperature yesterday: 32 °F (at 2:00 AM)
Average temperature yesterday: 45 °F

Past Weeks' High & Low Weather Summary

 TemperatureHumidityPressure
High61 °F (Apr 6, 4:30 PM)100% (Apr 11, 3:30 AM)30.36 "Hg (Apr 11, 3:30 AM)
Low30 °F (Apr 18, 6:30 AM)45% (Apr 6, 4:30 PM)29.59 "Hg (Apr 6, 4:00 PM)
Average48 °F77%30.08 "Hg
* Reported Apr 6 4:00 PM — Apr 21 4:30 PM, Dublin, Weather by CustomWeather, © 2014

Note: Actual official high and low records may vary slightly from our data, if they occured in-between our weather recording intervals... More about our weather records

Advertising

Historic Weather Conditions — Data for Previous 24 hours

 ConditionsComfort  
Time TempWeatherWind HumidityBarometerVisibility
4:30 PM
Apr 21
55 °FScattered clouds.8 mph77%29.74 "Hg6 mi
4:00 PM55 °FPartly sunny.9 mph77%29.77 "Hg6 mi
3:30 PM57 °FPartly sunny.10 mph63%29.77 "Hg6 mi
3:00 PM57 °FBroken clouds.13 mph63%29.77 "Hg6 mi
2:30 PM55 °FPartly sunny.13 mph77%29.77 "Hg5 mi
2:00 PM55 °FPartly sunny.10 mph72%29.77 "Hg5 mi
1:30 PM59 °FPartly sunny.12 mph68%29.77 "Hg6 mi
1:00 PM55 °FPartly sunny.14 mph72%29.77 "Hg5 mi
12:30 PM57 °FBroken clouds.15 mph67%29.77 "Hg6 mi
12:00 PM55 °FScattered clouds.15 mph72%29.77 "Hg4 mi
11:30 AM55 °FPassing clouds.17 mph77%29.77 "Hg4 mi
11:00 AM55 °FPassing clouds.16 mph77%29.74 "Hg4 mi
10:30 AM55 °FScattered clouds.17 mph77%29.74 "Hg4 mi
10:00 AM54 °FScattered clouds.14 mph82%29.74 "Hg4 mi
9:30 AM54 °FFog.15 mph82%29.74 "Hg3 mi
9:00 AM52 °FFog.15 mph88%29.74 "Hg3 mi
8:30 AM50 °FFog.14 mph88%29.74 "Hg2 mi
8:00 AM48 °FBroken clouds.16 mph94%29.74 "Hg4 mi
7:30 AM48 °FBroken clouds.17 mph94%29.71 "Hg4 mi
7:00 AM48 °FPartly cloudy.15 mph94%29.71 "Hg4 mi
6:30 AM48 °FPartly cloudy.20 mph94%29.71 "Hg3 mi
6:00 AM48 °FPartly cloudy.20 mph94%29.71 "Hg3 mi
5:30 AM48 °FPartly cloudy.17 mph94%29.68 "HgN/A
5:00 AM48 °FPartly cloudy.17 mph94%29.71 "HgN/A
4:30 AM48 °FPartly cloudy.16 mph94%29.71 "HgN/A
4:00 AM48 °FLight rain. Partly cloudy.17 mph94%29.71 "HgN/A
3:30 AM48 °FLight rain. Partly cloudy.16 mph94%29.71 "HgN/A
3:00 AM48 °FSprinkles. Partly cloudy.18 mph94%29.71 "HgN/A
2:30 AM48 °FPassing clouds.17 mph87%29.71 "HgN/A
2:00 AM48 °FSprinkles. Partly cloudy.21 mph87%29.71 "HgN/A
1:30 AM50 °FSprinkles. Partly cloudy.21 mph82%29.71 "HgN/A
1:00 AM50 °FPassing clouds.18 mph82%29.74 "HgN/A
12:30 AM50 °FPassing clouds.18 mph82%29.74 "HgN/A
12:00 AM50 °FPassing clouds.21 mph82%29.74 "HgN/A
11:30 PM
Apr 20
52 °FPassing clouds.23 mph77%29.74 "HgN/A
11:00 PM52 °FPartly cloudy.22 mph77%29.74 "HgN/A
10:00 PM52 °FPassing clouds.22 mph77%29.77 "HgN/A
9:30 PM52 °FPartly sunny.20 mph77%29.77 "HgN/A
9:00 PM50 °FSprinkles. Broken clouds.20 mph82%29.77 "HgN/A
8:30 PM50 °FSprinkles. Broken clouds.15 mph82%29.77 "HgN/A
8:00 PM50 °FSprinkles. Broken clouds.20 mph82%29.80 "HgN/A
7:30 PM50 °FBroken clouds.18 mph82%29.80 "HgN/A
7:00 PM50 °FSprinkles. Broken clouds.15 mph82%29.80 "HgN/A
6:30 PM50 °FBroken clouds.15 mph82%29.83 "HgN/A
6:00 PM50 °FSprinkles. Broken clouds.14 mph82%29.83 "HgN/A
5:30 PM48 °FSprinkles. Mostly cloudy.17 mph87%29.83 "HgN/A
5:00 PM48 °FMostly cloudy.21 mph82%29.83 "HgN/A
Weather by CustomWeather, © 2014

See weather overview